User: anonymous   Login
Location: Wells
(51.2093°N, 2.6446°W)
Time: 17:21:56
(UTC+00:00)
Language:

NOAA 19 - Orbit

View from above orbital plane
View from above orbital plane
View from above satellite
View from above satellite

Ground track
Ground track

The orbit is defined by the following mean orbital elements,

1 33591U          26073.26575087 +.00000000 +00000-0 +46563-4 0 00000
2 33591  98.9598 144.0443 0012751 300.7903  59.2014 14.13457684    03
Epoch (UTC): 14 March 2026 06:22:40
Eccentricity: 0.0012751
inclination: 98.9598°
perigee height: 838 km
apogee height: 857 km
right ascension of ascending node: 144.0443°
argument of perigee: 300.7903°
revolutions per day: 14.13457684
mean anomaly at epoch: 59.2014°

The dashed part of the orbit path shows where the satellite is in the earth's shadow,  

DLR